DW8692 Weather Reports


time (UTC)temp
F
wind
direction
speed
knots
gust
knots
rain 1hr
in
rain 24hr
in
rain mn
in
humidity
%
barometer
mb
20260504035538 58 340 7.8 0.0 0.00 0.00 0.00 41 1001.9
20260504035037 58 345 8.7 0.0 0.00 0.00 0.00 40 1001.7
20260504034535 58 306 9.6 0.0 0.00 0.00 0.00 40 1001.6
20260504034034 59 342 10.4 0.0 0.00 0.00 0.00 39 1001.5
20260504033633 59 342 10.4 0.0 0.00 0.00 0.00 39 1001.3
20260504033035 59 5 10.4 0.0 0.00 0.00 0.00 39 1001.3
20260504032535 60 346 11.3 0.0 0.00 0.00 0.00 38 1001.3
20260504032032 60 346 12.2 0.0 0.00 0.00 0.00 38 1001.1
20260504031532 61 311 11.3 0.0 0.00 0.00 0.00 36 1000.9
20260504031028 63 329 9.6 0.0 0.00 0.00 0.00 35 1000.8
20260504030531 64 304 8.7 0.0 0.00 0.00 0.00 36 1000.1
20260504030027 64 288 7.8 0.0 0.00 0.00 0.00 36 999.8
20260504025526 64 293 7.0 0.0 0.00 0.00 0.00 36 999.8
20260504025025 64 275 7.8 0.0 0.00 0.00 0.00 36 999.7
20260504024523 65 303 8.7 0.0 0.00 0.00 0.00 35 999.7
20260504024028 65 274 8.7 0.0 0.00 0.00 0.00 35 999.7
20260504023623 65 284 8.7 0.0 0.00 0.00 0.00 35 999.6
20260504023022 65 276 9.6 0.0 0.00 0.00 0.00 35 999.6
20260504022523 66 296 9.6 0.0 0.00 0.00 0.00 35 999.5
20260504022021 66 310 9.6 0.0 0.00 0.00 0.00 34 999.4
20260504021520 66 306 10.4 0.0 0.00 0.00 0.00 34 999.5
20260504021021 67 299 10.4 0.0 0.00 0.00 0.00 33 999.6
20260504020518 67 298 11.3 0.0 0.00 0.00 0.00 33 999.5
20260504020017 68 305 12.2 0.0 0.00 0.00 0.00 33 999.6
20260504015515 68 313 13.0 0.0 0.00 0.00 0.00 32 999.5
20260504015014 68 300 13.0 0.0 0.00 0.00 0.00 32 999.5
20260504014522 69 294 12.2 0.0 0.00 0.00 0.00 31 999.6
20260504014012 69 316 12.2 0.0 0.00 0.00 0.00 30 999.5
20260504013613 70 301 12.2 0.0 0.00 0.00 0.00 28 999.4
20260504013011 70 287 12.2 0.0 0.00 0.00 0.00 28 999.4
20260504012511 71 293 12.2 0.0 0.00 0.00 0.00 26 999.4
20260504012013 72 280 12.2 0.0 0.00 0.00 0.00 25 999.5
20260504011509 72 295 9.6 0.0 0.00 0.00 0.00 24 999.5
20260504011010 72 265 8.7 0.0 0.00 0.00 0.00 25 999.4
20260504010508 71 288 9.6 0.0 0.00 0.00 0.00 25 999.5
20260504010007 71 275 9.6 0.0 0.00 0.00 0.00 25 999.5
20260504005506 72 252 9.6 0.0 0.00 0.00 0.00 24 999.6
20260504005005 72 287 10.4 0.0 0.00 0.00 0.00 24 999.7
20260504004504 73 278 9.6 0.0 0.00 0.00 0.00 23 999.8
20260504004002 73 267 11.3 0.0 0.00 0.00 0.00 23 999.9
20260504003605 73 298 13.9 0.0 0.00 0.00 0.00 22 1000.1
20260504003006 73 286 12.2 0.0 0.00 0.00 0.00 22 1000.0
20260504002502 73 262 11.3 0.0 0.00 0.00 0.00 22 1000.0
20260504002002 73 306 11.3 0.0 0.00 0.00 0.00 22 1000.1
20260504001502 74 290 9.6 0.0 0.00 0.00 0.00 23 1000.1
20260504001100 74 265 10.4 0.0 0.00 0.00 0.00 23 1000.3
20260504000559 74 264 12.2 0.0 0.00 0.00 0.00 23 1000.3
20260504000129 74 266 12.2 0.0 0.00 0.00 0.00 22 1000.4
20260503235559 74 281 12.2 0.0 0.00 0.00 0.00 22 1000.3
20260503235059 74 281 12.2 0.0 0.00 0.00 0.00 23 1000.3
20260503234558 75 306 12.2 0.0 0.00 0.00 0.00 23 1000.5
20260503234057 74 267 13.0 0.0 0.00 0.00 0.00 24 1000.3
20260503233557 73 268 13.0 0.0 0.00 0.00 0.00 25 1000.7
20260503233055 73 264 13.0 0.0 0.00 0.00 0.00 25 1000.7
20260503232554 74 271 11.3 0.0 0.00 0.00 0.00 25 1000.7
20260503232053 74 257 10.4 0.0 0.00 0.00 0.00 25 1000.9
20260503231553 74 263 10.4 0.0 0.00 0.00 0.00 25 1001.1
20260503231052 74 260 12.2 0.0 0.00 0.00 0.00 25 1001.1
20260503230551 74 293 13.0 0.0 0.00 0.00 0.00 25 1001.4
20260503230053 74 275 12.2 0.0 0.00 0.00 0.00 25 1001.6
20260503225550 74 271 12.2 0.0 0.00 0.00 0.00 25 1001.5
20260503225050 73 271 13.0 0.0 0.00 0.00 0.00 24 1001.7
20260503224549 73 269 13.0 0.0 0.00 0.00 0.00 24 1001.9
20260503224050 74 259 9.6 0.0 0.00 0.00 0.00 24 1001.9
20260503223548 74 265 10.4 0.0 0.00 0.00 0.00 23 1002.2
20260503223048 74 299 9.6 0.0 0.00 0.00 0.00 22 1002.2
20260503222548 74 252 10.4 0.0 0.00 0.00 0.00 22 1002.3
20260503222047 73 255 11.3 0.0 0.00 0.00 0.00 23 1002.4
20260503221552 73 261 12.2 0.0 0.00 0.00 0.00 23 1002.6
20260503221047 73 273 12.2 0.0 0.00 0.00 0.00 23 1002.7
20260503220547 73 284 10.4 0.0 0.00 0.00 0.00 23 1002.7
20260503220045 73 280 10.4 0.0 0.00 0.00 0.00 24 1002.7
20260503215545 73 281 10.4 0.0 0.00 0.00 0.00 23 1002.8
20260503215044 73 258 8.7 0.0 0.00 0.00 0.00 25 1002.9
20260503214543 73 302 10.4 0.0 0.00 0.00 0.00 26 1003.0
20260503214042 72 275 12.2 0.0 0.00 0.00 0.00 26 1003.2
20260503213544 72 289 12.2 0.0 0.00 0.00 0.00 26 1003.4
20260503213044 72 255 12.2 0.0 0.00 0.00 0.00 26 1003.4
20260503212541 72 267 10.4 0.0 0.00 0.00 0.00 27 1003.5
20260503212041 72 263 9.6 0.0 0.00 0.00 0.00 27 1003.6
20260503211541 72 294 10.4 0.0 0.00 0.00 0.00 29 1003.7
20260503211039 72 266 11.3 0.0 0.00 0.00 0.00 28 1003.8
20260503210539 71 263 11.3 0.0 0.00 0.00 0.00 27 1003.8
20260503210038 72 277 11.3 0.0 0.00 0.00 0.00 28 1004.0
20260503205537 72 275 11.3 0.0 0.00 0.00 0.00 27 1004.1
20260503205037 72 287 11.3 0.0 0.00 0.00 0.00 26 1004.2
20260503204540 72 284 10.4 0.0 0.00 0.00 0.00 26 1004.2
20260503204037 72 272 11.3 0.0 0.00 0.00 0.00 25 1004.2
20260503203539 73 261 11.3 0.0 0.00 0.00 0.00 26 1004.4
20260503203038 73 290 10.4 0.0 0.00 0.00 0.00 25 1004.3
20260503202537 74 277 9.6 0.0 0.00 0.00 0.00 28 1004.3
20260503202036 73 284 10.4 0.0 0.00 0.00 0.00 27 1004.3
20260503201536 73 290 10.4 0.0 0.00 0.00 0.00 28 1004.4
20260503201034 73 286 11.3 0.0 0.00 0.00 0.00 29 1004.4
20260503200537 73 269 12.2 0.0 0.00 0.00 0.00 28 1004.8
20260503200034 72 247 12.2 0.0 0.00 0.00 0.00 31 1004.9
20260503195532 73 263 12.2 0.0 0.00 0.00 0.00 31 1004.9
20260503195034 72 267 11.3 0.0 0.00 0.00 0.00 29 1005.3
20260503194533 73 266 11.3 0.0 0.00 0.00 0.00 29 1005.2
20260503194031 72 269 11.3 0.0 0.00 0.00 0.00 29 1005.3
20260503193532 72 271 12.2 0.0 0.00 0.00 0.00 31 1005.5
20260503193039 71 360 13.0 0.0 0.00 0.00 0.00 31 1005.6
20260503192528 71 274 12.2 0.0 0.00 0.00 0.00 29 1005.8
20260503192027 72 261 11.3 0.0 0.00 0.00 0.00 28 1005.8
20260503191527 72 249 10.4 0.0 0.00 0.00 0.00 29 1006.0
20260503191029 72 299 12.2 0.0 0.00 0.00 0.00 30 1006.1
20260503190525 71 259 13.0 0.0 0.00 0.00 0.00 30 1006.4
20260503190024 71 302 12.2 0.0 0.00 0.00 0.00 30 1006.3
20260503185524 71 257 11.3 0.0 0.00 0.00 0.00 29 1006.5
20260503185023 71 265 10.4 0.0 0.00 0.00 0.00 31 1006.6
20260503184526 71 261 11.3 0.0 0.00 0.00 0.00 31 1006.8
20260503184024 71 286 12.2 0.0 0.00 0.00 0.00 30 1007.0
20260503183521 71 257 11.3 0.0 0.00 0.00 0.00 31 1007.1
20260503183020 70 232 11.3 0.0 0.00 0.00 0.00 31 1007.1
20260503182519 70 250 12.2 0.0 0.00 0.00 0.00 31 1007.2
20260503182021 70 238 9.6 0.0 0.00 0.00 0.00 33 1007.3
20260503181519 70 238 10.4 0.0 0.00 0.00 0.00 32 1007.5
20260503181019 70 265 11.3 0.0 0.00 0.00 0.00 32 1007.6
20260503180518 70 302 11.3 0.0 0.00 0.00 0.00 32 1007.6
20260503180020 69 244 11.3 0.0 0.00 0.00 0.00 33 1007.6
20260503175517 69 239 11.3 0.0 0.00 0.00 0.00 32 1007.8
20260503175016 69 289 10.4 0.0 0.00 0.00 0.00 33 1008.1
20260503174515 69 267 10.4 0.0 0.00 0.00 0.00 32 1008.2
20260503174014 69 245 11.3 0.0 0.00 0.00 0.00 32 1008.3
20260503173514 69 294 11.3 0.0 0.00 0.00 0.00 33 1008.4
20260503173022 69 265 11.3 0.0 0.00 0.00 0.00 32 1008.4
20260503172513 69 270 10.4 0.0 0.00 0.00 0.00 33 1008.5
20260503172012 68 257 10.4 0.0 0.00 0.00 0.00 33 1008.6
20260503171520 68 245 10.4 0.0 0.00 0.00 0.00 33 1008.6
20260503171010 68 257 11.3 0.0 0.00 0.00 0.00 33 1008.8
20260503170509 68 299 11.3 0.0 0.00 0.00 0.00 33 1008.8
20260503150555 63 250 10.4 0.0 0.00 0.00 0.00 37 1010.7
20260503131046 52 141 7.8 0.0 0.00 0.00 0.00 47 1011.7
20260503130548 51 148 7.0 0.0 0.00 0.00 0.00 48 1011.7
20260503110538 44 233 2.6 0.0 0.00 0.00 0.00 55 1012.5
20260503081533 39 355 0.0 0.0 0.00 0.00 0.00 61 1013.5
20260503081031 38 355 0.0 0.0 0.00 0.00 0.00 62 1013.4
20260503080531 38 355 0.0 0.0 0.00 0.00 0.00 62 1013.4
20260503072533 36 355 0.0 0.0 0.00 0.00 0.00 66 1013.4
20260503072028 36 355 0.0 0.0 0.00 0.00 0.00 65 1013.4
20260503071534 36 355 0.0 0.0 0.00 0.00 0.00 63 1013.5
20260503071027 36 355 0.0 0.0 0.00 0.00 0.00 63 1013.5
20260503070527 37 355 0.0 0.0 0.00 0.00 0.00 63 1013.5
20260503055014 41 351 0.0 0.0 0.00 0.00 0.00 55 1013.5
20260503054513 42 351 0.0 0.0 0.00 0.00 0.00 55 1013.4
20260503054012 42 351 0.0 0.0 0.00 0.00 0.00 56 1013.5
20260503053512 42 351 0.0 0.0 0.00 0.00 0.00 55 1013.5
20260503052510 43 351 0.0 0.0 0.00 0.00 0.00 53 1013.4
20260503052009 44 351 0.0 0.0 0.00 0.00 0.00 52 1013.4
20260503051509 44 351 0.0 0.0 0.00 0.00 0.00 53 1013.5
20260503051012 44 351 0.0 0.0 0.00 0.00 0.00 53 1013.4
20260503050512 44 351 0.0 0.0 0.00 0.00 0.00 52 1013.5
20260503050012 45 351 0.9 0.0 0.00 0.00 0.00 52 1013.5
20260503045508 45 351 0.9 0.0 0.00 0.00 0.00 51 1013.5
20260503045012 45 351 0.9 0.0 0.00 0.00 0.00 51 1013.6
20260503044507 45 351 0.0 0.0 0.00 0.00 0.00 52 1013.6
20260503044010 44 351 0.0 0.0 0.00 0.00 0.00 52 1013.6
20260503043506 44 351 0.0 0.0 0.00 0.00 0.00 53 1013.6
20260503042507 44 351 0.9 0.0 0.00 0.00 0.00 52 1013.6
20260503042006 44 351 0.9 0.0 0.00 0.00 0.00 52 1013.7
20260503041506 44 351 1.7 0.0 0.00 0.00 0.00 52 1013.7
20260503041005 43 351 0.9 0.0 0.00 0.00 0.00 53 1013.6
20260503040505 44 351 0.0 0.0 0.00 0.00 0.00 51 1013.7
20260503040003 44 355 0.0 0.0 0.00 0.00 0.00 52 1013.6